Location: Caltech
(34.1382°N, 118.1253°W)
Time: 08:52:42
(UTC-07:00)

Aureole 3 Rocket - Visible Passes

Search period start: 20 April 2014 00:00
Search period end: 30 April 2014 00:00
Orbit: 400 x 1760 km, 82.5° (Epoch: 19 April)

Date Brightness Start Highest point End Pass type
(mag) Time Alt. Az. Time Alt. Az. Time Alt. Az.
20 Apr 4.9 20:32:01 10° N 20:41:52 85° W 20:49:20 10° S visible
20 Apr 7.1 22:22:57 10° NW 22:27:35 15° WNW 22:31:47 10° WSW visible
21 Apr 5.0 19:41:38 10° N 19:51:01 51° ENE 19:58:13 10° SSE visible
21 Apr 6.4 21:30:08 10° NNW 21:38:04 32° W 21:44:30 10° SW visible
22 Apr 5.2 20:38:47 10° NNW 20:48:07 62° W 20:55:10 10° SSW visible
23 Apr 4.7 19:48:07 10° N 19:57:34 69° E 20:04:34 10° SSE visible
23 Apr 6.8 21:37:36 10° NNW 21:43:55 22° WNW 21:49:15 10° WSW visible
24 Apr 5.8 20:45:41 10° NNW 20:54:12 44° W 21:00:41 10° SSW visible
25 Apr 4.7 19:54:43 10° N 20:03:56 88° W 20:10:38 10° S visible
25 Apr 7.1 21:45:47 10° NW 21:49:38 14° WNW 21:53:07 10° W visible
26 Apr 6.4 20:52:49 10° NNW 21:00:06 30° W 21:05:51 10° SW visible
27 Apr 5.1 20:01:26 10° NNW 20:10:07 63° W 20:16:24 10° S visible
28 Apr 6.7 21:00:17 10° NW 21:05:52 20° WNW 21:10:30 10° WSW visible
29 Apr 5.7 20:08:18 10° NNW 20:16:06 43° W 20:21:53 10° SSW visible
